Weather observations for the past three days for
Battle Creek Executive Airport
Imperial (Metric)
Date Time (edt) Wind (mph) Vis. (mi.) Weather Sky Cond. Temperature (ºF) Relative Humidity Wind Chill (°F) Heat Index (°F) Pressure Precipitation (in)
Air Dwpt 6 hour altimeter (in) sea level (mb) 1 hr 3 hr 6 hr
Max. Min.
20 08:53 Calm 10.00 Fair CLR 66 57.9 75% 30.16 1020.8
20 07:53 Calm 10.00 Fair CLR 61 55.9 62.1 55.9 84% 30.15 1020.4
20 06:53 Calm 10.00 Fair CLR 57.9 53.1 84% 30.13 1019.9
20 05:53 Calm 10.00 Fair CLR 59 55.9 90% 30.13 1019.8
20 04:53 Calm 10.00 Fair CLR 59 55 87% 30.12 1019.6
20 03:53 Calm 10.00 Fair CLR 60.1 55 84% 30.13 1019.9
20 02:53 Calm 10.00 Fair CLR 60.1 55 84% 30.14 1020.2
20 01:53 Calm 10.00 Fair CLR 62.1 55.9 75.9 62.1 80% 30.14 1020.1
20 00:53 Calm 10.00 Fair CLR 63 55.9 78% 30.15 1020.4
19 23:53 Calm 10.00 Mostly Cloudy BKN049 64 57 78% 30.15 1020.6
19 22:53 W 5 10.00 Partly Cloudy SCT050 66.9 57 71% 30.15 1020.4
19 21:53 Calm 10.00 Fair CLR 68 57.9 70% 30.13 1020.0
19 20:53 S 5 10.00 Fair CLR 71.1 59 66% 30.13 1019.9
19 19:53 W 6 10.00 Partly Cloudy SCT050 75.9 55 78.1 73 48% 78 30.14 1020.1
19 18:53 W 6 10.00 Mostly Cloudy BKN050 77 54 45% 78 30.14 1020.1
19 17:53 Calm 10.00 Fair CLR 78.1 55 45% 79 30.15 1020.5
19 16:53 W 6 10.00 Mostly Cloudy BKN050 77 54 45% 78 30.16 1020.8
19 15:53 Vrbl 3 10.00 A Few Clouds FEW049 75.9 54 47% 78 30.17 1021.4
19 14:53 W 5 10.00 A Few Clouds FEW047 77 54 45% 78 30.18 1021.8
19 13:53 NW 8 10.00 Fair CLR 75 55 75 59 50% 78 30.2 1022.3
19 12:53 W 5 10.00 Fair CLR 73 51.1 46% 30.21 1022.8
19 11:53 Vrbl 5 10.00 Fair CLR 72 50 46% 30.22 1022.9
19 10:53 W 5 10.00 Fair CLR 70 54 57% 30.22 1022.9
19 09:53 SW 5 10.00 Fair CLR 68 55.9 65% 30.23 1023.4
19 08:53 NW 3 10.00 Fair CLR 64 55.9 75% 30.23 1023.3
19 07:53 SW 3 10.00 Fair CLR 59 54 60.1 54 83% 30.22 1022.8
19 06:53 Calm 10.00 Fair CLR 54 50 87% 30.2 1022.6
19 05:53 Calm 10.00 Fair CLR 55 50 83% 30.19 1022.1
19 04:53 Calm 10.00 Fair CLR 55 51.1 87% 30.18 1021.9
19 03:53 Calm 10.00 Fair CLR 57 52 83% 30.19 1022.0
19 02:53 Calm 10.00 Fair CLR 57 51.1 81% 30.18 1021.9
19 01:53 Calm 10.00 Fair CLR 59 52 72 59 78% 30.19 1021.9
19 00:53 Calm 10.00 Fair CLR 60.1 53.1 78% 30.18 1021.8
18 23:53 Calm 10.00 Fair CLR 62.1 53.1 73% 30.18 1021.6
18 22:53 NW 5 10.00 Fair CLR 62.1 54 75% 30.18 1021.6
18 21:53 W 5 10.00 Fair CLR 64.9 54 68% 30.16 1021.2
18 20:53 NW 7 10.00 A Few Clouds FEW047 68 54 61% 30.16 1021.1
18 19:53 NW 7 10.00 Fair CLR 72 53.1 75 70 52% 30.16 1020.9
18 18:53 NW 7 10.00 Fair CLR 73.9 53.1 48% 30.16 1021.0
18 17:53 N 8 10.00 Fair CLR 73.9 52 46% 30.16 1021.0
18 16:53 N 3 10.00 Mostly Cloudy BKN060 75 52 45% 78 30.16 1021.0
18 15:53 NW 7 10.00 Partly Cloudy FEW047 SCT055 73 52 48% 30.18 1021.5
18 14:53 N 7 10.00 Mostly Cloudy BKN049 71.1 52 51% 30.17 1021.4
18 13:53 Vrbl 5 10.00 Mostly Cloudy BKN025 73 53.1 73.9 59 50% 30.18 1021.6
18 12:53 N 12 10.00 Mostly Cloudy BKN022 72 53.1 52% 30.18 1021.5
18 11:53 NE 10 10.00 Mostly Cloudy BKN022 70 53.1 55% 30.17 1021.4
18 10:53 N 12 10.00 Mostly Cloudy BKN025 68 53.1 59% 30.17 1021.5
18 09:53 NE 9 10.00 Partly Cloudy SCT016 64.9 53.1 66% 30.17 1021.2
18 08:53 N 9 10.00 Partly Cloudy SCT014 62.1 53.1 73% 30.16 1020.9
18 07:53 N 7 10.00 Fair CLR 59 53.1 60.1 55.9 81% 30.14 1020.4
18 06:53 N 7 10.00 Fair CLR 55.9 52 87% 30.13 1019.9
18 05:53 N 7 10.00 Fair CLR 55.9 51.1 84% 30.11 1019.3
18 04:53 N 7 10.00 Fair CLR 57 51.1 81% 30.09 1018.7
18 03:53 NW 5 10.00 Fair CLR 57.9 51.1 78% 30.09 1018.6
18 02:53 N 6 10.00 Fair CLR 59 51.1 75% 30.09 1018.5
18 01:53 NW 7 10.00 Fair CLR 60.1 51.1 73 60.1 72% 30.09 1018.3
18 00:53 N 8 10.00 Fair CLR 62.1 51.1 67% 30.08 1017.9
17 23:53 N 6 10.00 Fair CLR 63 51.1 65% 30.06 1017.4
17 22:53 N 9 10.00 Fair CLR 64.9 51.1 61% 30.05 1016.9
17 21:53 NW 7 10.00 Fair CLR 66.9 51.1 57% 30.02 1016.1
17 20:53 N 8 10.00 Fair CLR 70 52 53% 30.01 1015.6
17 19:53 NW 14 10.00 Fair CLR 73 50 82.9 73 44% 29.99 1014.8
17 18:53 N 14 G 24 10.00 Fair CLR 75.9 52 43% 78 29.96 1014.0
17 17:53 NW 14 G 26 10.00 Fair CLR 77 54 45% 78 29.95 1013.8
17 16:53 NW 16 G 24 10.00 Fair CLR 78.1 55 45% 79 29.95 1013.5
17 15:53 NW 15 G 24 10.00 Partly Cloudy SCT050 80.1 59 49% 81 29.94 1013.2
17 14:53 NW 13 10.00 Partly Cloudy SCT050 81 57.9 45% 81 29.93 1012.9
17 13:53 NW 12 G 28 10.00 A Few Clouds FEW045 81 60.1 82 70 49% 82 29.93 1012.7
17 12:53 W 15 10.00 Mostly Cloudy BKN041 BKN050 BKN060 79 62.1 56% 80 29.93 1012.7
17 11:53 Vrbl 7 10.00 Mostly Cloudy BKN030 BKN039 BKN047 79 64 60% 81 29.92 1012.6
17 10:53 N 8 10.00 Fair CLR 78.1 64 62% 80 29.92 1012.5
17 09:53 N 7 10.00 Fair CLR 75.9 62.1 62% 78 29.91 1012.3
Date Time (edt) Wind (mph) Vis. (mi.) Weather Sky Cond. Air Dwpt Max. Min. Relative Humidity Wind Chill (°F) Heat Index (°F) altimeter (in) sea level (mb) 1 hr 3 hr 6 hr
6 hour
Temperature (ºF) Pressure Precipitation (in)